Time,TemperatureF,DewpointF,PressureIn,WindDirection,WindDirectionDegrees,WindSpeedMPH,WindSpeedGustMPH,Humidity,HourlyPrecipIn,Conditions,Clouds,dailyrainin,SoftwareType,DateUTC
2013-04-22 00:01:00,64.8,57.4,30.06,ENE,67,0.9,0.0,77,0.00,CLR,,0.00,WeatherDisplay:10.37,2013-04-22 05:01:00,
2013-04-22 00:06:00,64.7,57.7,30.06,ENE,57,2.1,3.5,78,0.00,CLR,,0.00,WeatherDisplay:10.37,2013-04-22 05:06:00,
2013-04-22 00:11:00,64.5,57.5,30.06,ESE,103,0.0,4.6,78,0.00,CLR,,0.00,WeatherDisplay:10.37,2013-04-22 05:11:00,
2013-04-22 00:16:00,64.4,57.4,30.06,ENE,63,0.3,1.0,78,0.00,CLR,,0.00,WeatherDisplay:10.37,2013-04-22 05:16:00,
2013-04-22 00:21:00,64.1,57.5,30.06,NE,47,0.0,0.0,79,0.00,CLR,,0.00,WeatherDisplay:10.37,2013-04-22 05:21:00,
2013-04-22 00:26:00,64.0,57.4,30.06,ENE,72,0.0,0.0,79,0.00,CLR,,0.00,WeatherDisplay:10.37,2013-04-22 05:26:00,
2013-04-22 00:31:00,63.7,57.4,30.06,ENE,67,0.0,2.0,80,0.00,CLR,,0.00,WeatherDisplay:10.37,2013-04-22 05:31:00,
2013-04-22 00:36:00,63.5,57.2,30.06,East,101,0.0,0.0,80,0.00,CLR,,0.00,WeatherDisplay:10.37,2013-04-22 05:36:00,
2013-04-22 00:41:00,63.4,57.1,30.06,ENE,77,0.0,0.0,80,0.00,CLR,,0.00,WeatherDisplay:10.37,2013-04-22 05:41:00,
2013-04-22 00:46:00,63.2,57.3,30.06,NNE,14,0.0,0.0,81,0.00,CLR,,0.00,WeatherDisplay:10.37,2013-04-22 05:46:00,
2013-04-22 00:51:00,63.1,57.2,30.06,ESE,109,0.0,0.0,81,0.00,CLR,,0.00,WeatherDisplay:10.37,2013-04-22 05:51:00,
2013-04-22 00:56:00,63.1,57.2,30.06,East,96,0.0,0.0,81,0.00,CLR,,0.00,WeatherDisplay:10.37,2013-04-22 05:56:00,
2013-04-22 01:01:00,63.0,57.4,30.06,NE,39,0.5,1.0,82,0.00,CLR,,0.00,WeatherDisplay:10.37,2013-04-22 06:01:00,
2013-04-22 01:06:00,62.9,57.3,30.06,NE,56,0.0,0.0,82,0.00,CLR,,0.00,WeatherDisplay:10.37,2013-04-22 06:06:00,
2013-04-22 01:11:00,62.9,57.3,30.06,NE,56,0.0,0.0,82,0.00,CLR,,0.00,WeatherDisplay:10.37,2013-04-22 06:11:00,
2013-04-22 01:16:00,62.8,57.6,30.06,NE,56,0.0,0.0,83,0.00,CLR,,0.00,WeatherDisplay:10.37,2013-04-22 06:16:00,
2013-04-22 01:21:00,62.7,57.5,30.06,South,172,0.0,0.0,83,0.00,CLR,,0.00,WeatherDisplay:10.37,2013-04-22 06:21:00,
2013-04-22 01:26:00,62.6,57.4,30.05,ENE,69,0.0,0.0,83,0.00,CLR,,0.00,WeatherDisplay:10.37,2013-04-22 06:26:00,
2013-04-22 01:31:00,62.5,57.3,30.05,NE,55,0.0,0.0,83,0.00,CLR,,0.00,WeatherDisplay:10.37,2013-04-22 06:31:00,
2013-04-22 01:36:00,62.5,57.3,30.05,NE,55,0.0,0.0,83,0.00,CLR,,0.00,WeatherDisplay:10.37,2013-04-22 06:36:00,
2013-04-22 01:41:00,62.4,57.5,30.05,NE,46,0.0,2.3,84,0.00,CLR,,0.00,WeatherDisplay:10.37,2013-04-22 06:41:00,
2013-04-22 01:46:00,62.3,57.4,30.05,NE,46,0.0,0.0,84,0.00,CLR,,0.00,WeatherDisplay:10.37,2013-04-22 06:46:00,
2013-04-22 01:51:00,62.3,57.4,30.05,West,259,0.1,1.2,84,0.00,CLR,,0.00,WeatherDisplay:10.37,2013-04-22 06:51:00,
2013-04-22 01:56:00,62.2,57.3,30.05,ENE,69,0.0,0.0,84,0.00,CLR,,0.00,WeatherDisplay:10.37,2013-04-22 06:56:00,
2013-04-22 02:01:00,62.2,57.6,30.05,North,360,0.0,0.0,85,0.00,CLR,,0.00,WeatherDisplay:10.37,2013-04-22 07:01:00,
2013-04-22 02:06:00,62.1,57.5,30.04,NNW,346,0.0,0.0,85,0.00,CLR,,0.00,WeatherDisplay:10.37,2013-04-22 07:06:00,
2013-04-22 02:11:00,62.0,57.4,30.04,NNW,346,0.0,0.0,85,0.00,CLR,,0.00,WeatherDisplay:10.37,2013-04-22 07:11:00,
2013-04-22 02:16:00,62.0,57.8,30.04,NNE,15,0.0,0.0,86,0.00,CLR,,0.00,WeatherDisplay:10.37,2013-04-22 07:16:00,
2013-04-22 02:21:00,61.9,57.7,30.04,NNW,331,0.0,0.0,86,0.00,CLR,,0.00,WeatherDisplay:10.37,2013-04-22 07:21:00,
2013-04-22 02:26:00,61.8,57.6,30.04,NNW,331,0.0,0.0,86,0.00,CLR,,0.00,WeatherDisplay:10.37,2013-04-22 07:26:00,
2013-04-22 02:31:00,61.7,57.5,30.04,NNW,331,0.0,0.0,86,0.00,CLR,,0.00,WeatherDisplay:10.37,2013-04-22 07:31:00,
2013-04-22 02:36:00,61.5,57.3,30.03,NNW,331,0.0,0.0,86,0.00,CLR,,0.00,WeatherDisplay:10.37,2013-04-22 07:36:00,
2013-04-22 02:41:00,61.4,57.2,30.03,NNW,331,0.0,0.0,86,0.00,CLR,,0.00,WeatherDisplay:10.37,2013-04-22 07:41:00,
2013-04-22 02:46:00,61.3,57.1,30.03,NNW,331,0.0,0.0,86,0.00,CLR,,0.00,WeatherDisplay:10.37,2013-04-22 07:46:00,
2013-04-22 02:51:00,61.2,57.3,30.03,NNW,331,0.0,0.0,87,0.00,CLR,,0.00,WeatherDisplay:10.37,2013-04-22 07:51:00,
2013-04-22 02:56:00,61.0,57.1,30.02,NNE,15,0.0,0.0,87,0.00,CLR,,0.00,WeatherDisplay:10.37,2013-04-22 07:56:00,
2013-04-22 03:01:00,60.9,57.0,30.03,NNE,15,0.0,1.2,87,0.00,CLR,,0.00,WeatherDisplay:10.37,2013-04-22 08:01:00,
2013-04-22 03:06:00,60.8,56.9,30.02,NNE,15,0.0,0.0,87,0.00,CLR,,0.00,WeatherDisplay:10.37,2013-04-22 08:06:00,
2013-04-22 03:11:00,60.8,56.9,30.02,North,5,0.0,0.0,87,0.00,CLR,,0.00,WeatherDisplay:10.37,2013-04-22 08:11:00,
2013-04-22 03:16:00,60.7,57.1,30.02,North,5,0.0,0.0,88,0.00,CLR,,0.00,WeatherDisplay:10.37,2013-04-22 08:16:00,
2013-04-22 03:21:00,60.6,57.0,30.01,NNE,17,0.0,0.0,88,0.00,CLR,,0.00,WeatherDisplay:10.37,2013-04-22 08:21:00,
2013-04-22 03:26:00,60.6,57.0,30.01,NNE,17,0.0,0.0,88,0.00,CLR,,0.00,WeatherDisplay:10.37,2013-04-22 08:26:00,
2013-04-22 03:31:00,60.5,56.9,30.01,NNE,17,0.0,0.0,88,0.00,CLR,,0.00,WeatherDisplay:10.37,2013-04-22 08:31:00,
2013-04-22 03:36:00,60.4,56.8,30.01,NNE,17,0.0,0.0,88,0.00,CLR,,0.00,WeatherDisplay:10.37,2013-04-22 08:36:00,
2013-04-22 03:41:00,60.4,57.1,30.01,NNE,17,0.0,0.0,89,0.00,CLR,,0.00,WeatherDisplay:10.37,2013-04-22 08:41:00,
2013-04-22 03:46:00,60.3,57.0,30.01,NNE,17,0.0,0.0,89,0.00,CLR,,0.00,WeatherDisplay:10.37,2013-04-22 08:46:00,
2013-04-22 03:51:00,60.2,56.9,30.01,NNE,17,0.0,0.0,89,0.00,CLR,,0.00,WeatherDisplay:10.37,2013-04-22 08:51:00,
2013-04-22 03:56:00,60.0,56.7,30.01,NNE,17,0.0,0.0,89,0.00,CLR,,0.00,WeatherDisplay:10.37,2013-04-22 08:56:00,
2013-04-22 04:01:00,59.9,56.6,30.01,NNE,17,0.0,0.0,89,0.00,CLR,,0.00,WeatherDisplay:10.37,2013-04-22 09:01:00,
2013-04-22 04:06:00,59.8,56.6,30.01,NNE,17,0.0,0.0,89,0.00,CLR,,0.00,WeatherDisplay:10.37,2013-04-22 09:06:00,
2013-04-22 04:11:00,59.6,56.4,30.01,NNE,17,0.0,0.0,89,0.00,CLR,,0.00,WeatherDisplay:10.37,2013-04-22 09:11:00,
2013-04-22 04:16:00,59.6,56.4,30.01,NNE,17,0.0,0.0,89,0.00,CLR,,0.00,WeatherDisplay:10.37,2013-04-22 09:16:00,
2013-04-22 04:21:00,59.5,56.3,30.01,NNE,17,0.0,0.0,89,0.00,CLR,,0.00,WeatherDisplay:10.37,2013-04-22 09:21:00,
2013-04-22 04:26:00,59.4,56.5,30.01,NNE,17,0.0,0.0,90,0.00,CLR,,0.00,WeatherDisplay:10.37,2013-04-22 09:26:00,
2013-04-22 04:31:00,59.5,56.6,30.01,NNE,17,0.0,0.0,90,0.00,CLR,,0.00,WeatherDisplay:10.37,2013-04-22 09:31:00,
2013-04-22 04:36:00,59.5,56.9,30.01,NNE,17,0.0,0.0,91,0.00,CLR,,0.00,WeatherDisplay:10.37,2013-04-22 09:36:00,
2013-04-22 04:41:00,59.6,57.0,30.01,NNE,19,0.0,0.0,91,0.00,CLR,,0.00,WeatherDisplay:10.37,2013-04-22 09:41:00,
2013-04-22 04:46:00,59.6,57.0,30.01,NNE,17,0.0,0.0,91,0.00,CLR,,0.00,WeatherDisplay:10.37,2013-04-22 09:46:00,
2013-04-22 04:51:00,59.7,57.1,30.01,NNE,17,0.0,0.0,91,0.00,CLR,,0.00,WeatherDisplay:10.37,2013-04-22 09:51:00,
2013-04-22 04:56:00,59.7,57.1,30.01,NNE,17,0.0,0.0,91,0.00,CLR,,0.00,WeatherDisplay:10.37,2013-04-22 09:56:00,
2013-04-22 05:01:00,59.7,57.1,30.01,NNE,17,0.0,0.0,91,0.00,CLR,,0.00,WeatherDisplay:10.37,2013-04-22 10:01:00,
2013-04-22 05:06:00,59.7,57.1,30.01,NW,321,0.0,0.0,91,0.00,CLR,,0.00,WeatherDisplay:10.37,2013-04-22 10:06:00,
2013-04-22 05:11:00,59.7,57.4,30.01,SSW,197,0.0,0.0,92,0.00,CLR,,0.00,WeatherDisplay:10.37,2013-04-22 10:11:00,
2013-04-22 05:16:00,59.7,57.4,30.01,SW,233,0.5,1.2,92,0.00,CLR,,0.00,WeatherDisplay:10.37,2013-04-22 10:16:00,
2013-04-22 05:21:00,59.7,57.4,30.01,SW,234,0.0,0.0,92,0.00,CLR,,0.00,WeatherDisplay:10.37,2013-04-22 10:21:00,
2013-04-22 05:26:00,59.7,57.4,30.01,SW,234,0.0,0.0,92,0.00,CLR,,0.00,WeatherDisplay:10.37,2013-04-22 10:26:00,
2013-04-22 05:31:00,59.6,57.3,30.01,SW,234,0.0,0.0,92,0.00,CLR,,0.00,WeatherDisplay:10.37,2013-04-22 10:31:00,
2013-04-22 05:36:00,59.6,57.3,30.01,SW,234,0.0,0.0,92,0.00,CLR,,0.00,WeatherDisplay:10.37,2013-04-22 10:36:00,
2013-04-22 05:41:00,59.5,57.2,30.01,SW,234,0.0,0.0,92,0.00,CLR,,0.00,WeatherDisplay:10.37,2013-04-22 10:41:00,
2013-04-22 05:46:00,59.5,57.2,30.01,SW,234,0.0,0.0,92,0.00,CLR,,0.00,WeatherDisplay:10.37,2013-04-22 10:46:00,
2013-04-22 05:51:00,59.4,57.1,30.01,SW,234,0.0,0.0,92,0.00,CLR,,0.00,WeatherDisplay:10.37,2013-04-22 10:51:00,
2013-04-22 05:56:00,59.4,57.1,30.01,SW,234,0.0,0.0,92,0.00,CLR,,0.00,WeatherDisplay:10.37,2013-04-22 10:56:00,
2013-04-22 06:01:00,59.5,57.2,30.01,SW,234,0.0,0.0,92,0.00,CLR,,0.00,WeatherDisplay:10.37,2013-04-22 11:01:00,
2013-04-22 06:06:00,59.5,57.2,30.01,SW,234,0.0,0.0,92,0.00,CLR,,0.00,WeatherDisplay:10.37,2013-04-22 11:06:00,
2013-04-22 06:11:00,59.4,57.1,30.01,SW,234,0.0,0.0,92,0.00,CLR,,0.00,WeatherDisplay:10.37,2013-04-22 11:11:00,
2013-04-22 06:16:00,59.5,57.2,30.01,SW,234,0.0,0.0,92,0.00,CLR,,0.00,WeatherDisplay:10.37,2013-04-22 11:16:00,
2013-04-22 06:21:00,59.4,57.1,30.01,SW,234,0.0,0.0,92,0.00,CLR,,0.00,WeatherDisplay:10.37,2013-04-22 11:21:00,
2013-04-22 06:26:00,59.5,57.2,30.01,SW,234,0.0,0.0,92,0.00,CLR,,0.00,WeatherDisplay:10.37,2013-04-22 11:26:00,
2013-04-22 06:31:00,59.5,57.2,30.01,SW,232,0.0,0.0,92,0.00,CLR,,0.00,WeatherDisplay:10.37,2013-04-22 11:31:00,
2013-04-22 06:36:00,59.4,57.1,30.01,SSW,198,0.9,2.3,92,0.00,CLR,,0.00,WeatherDisplay:10.37,2013-04-22 11:36:00,
2013-04-22 06:41:00,59.5,57.2,30.01,SSW,198,0.0,0.0,92,0.00,CLR,,0.00,WeatherDisplay:10.37,2013-04-22 11:41:00,
2013-04-22 06:46:00,59.5,57.2,30.01,East,96,0.0,0.0,92,0.00,CLR,,0.00,WeatherDisplay:10.37,2013-04-22 11:46:00,
2013-04-22 06:51:00,59.5,57.2,30.02,East,97,0.0,0.0,92,0.00,CLR,,0.00,WeatherDisplay:10.37,2013-04-22 11:51:00,
2013-04-22 06:56:00,59.5,57.2,30.02,East,97,0.0,0.0,92,0.00,CLR,,0.00,WeatherDisplay:10.37,2013-04-22 11:56:00,
2013-04-22 07:01:00,59.5,57.2,30.02,East,97,0.0,0.0,92,0.00,CLR,,0.00,WeatherDisplay:10.37,2013-04-22 12:01:00,
2013-04-22 07:06:00,59.5,57.2,30.02,East,97,0.0,0.0,92,0.00,CLR,,0.00,WeatherDisplay:10.37,2013-04-22 12:06:00,
2013-04-22 07:11:00,59.5,57.5,30.02,East,97,0.0,0.0,93,0.00,CLR,,0.00,WeatherDisplay:10.37,2013-04-22 12:11:00,
2013-04-22 07:16:00,59.4,57.4,30.02,East,97,0.0,0.0,93,0.00,CLR,,0.00,WeatherDisplay:10.37,2013-04-22 12:16:00,
2013-04-22 07:17:00,59.5,57.5,30.02,East,97,0.0,0.0,93,0.00,CLR,,0.00,WeatherDisplay:10.37,2013-04-22 12:17:00,
2013-04-22 07:22:00,59.4,57.4,30.02,East,97,0.0,0.0,93,0.00,CLR,,0.00,WeatherDisplay:10.37,2013-04-22 12:22:00,
2013-04-22 07:27:00,59.4,57.4,30.03,East,97,0.0,0.0,93,0.00,CLR,,0.00,WeatherDisplay:10.37,2013-04-22 12:27:00,
2013-04-22 07:32:00,59.4,57.4,30.03,East,97,0.0,0.0,93,0.00,CLR,,0.00,WeatherDisplay:10.37,2013-04-22 12:32:00,
2013-04-22 07:37:00,59.3,57.3,30.03,East,97,0.0,0.0,93,0.00,CLR,,0.00,WeatherDisplay:10.37,2013-04-22 12:37:00,
2013-04-22 07:42:00,59.3,57.3,30.03,East,97,0.0,0.0,93,0.00,CLR,,0.00,WeatherDisplay:10.37,2013-04-22 12:42:00,
2013-04-22 07:47:00,59.4,57.4,30.03,East,97,0.0,0.0,93,0.00,CLR,,0.00,WeatherDisplay:10.37,2013-04-22 12:47:00,
2013-04-22 07:52:00,59.6,57.6,30.03,East,94,0.1,1.2,93,0.00,CLR,,0.00,WeatherDisplay:10.37,2013-04-22 12:52:00,
2013-04-22 07:57:00,59.7,57.7,30.03,East,95,0.0,0.0,93,0.00,CLR,,0.00,WeatherDisplay:10.37,2013-04-22 12:57:00,
2013-04-22 08:02:00,59.9,57.9,30.03,East,95,0.0,1.2,93,0.00,CLR,,0.00,WeatherDisplay:10.37,2013-04-22 13:02:00,
2013-04-22 08:07:00,60.1,58.1,30.03,SSW,201,0.1,0.0,93,0.00,CLR,,0.00,WeatherDisplay:10.37,2013-04-22 13:07:00,
2013-04-22 08:12:00,60.2,58.2,30.03,SW,228,0.0,1.2,93,0.00,CLR,,0.00,WeatherDisplay:10.37,2013-04-22 13:12:00,
2013-04-22 08:17:00,60.3,58.3,30.03,SW,217,0.0,1.0,93,0.00,CLR,,0.00,WeatherDisplay:10.37,2013-04-22 13:17:00,
2013-04-22 08:22:00,60.4,58.4,30.04,SW,217,0.0,0.0,93,0.00,CLR,,0.00,WeatherDisplay:10.37,2013-04-22 13:22:00,
2013-04-22 08:27:00,60.5,58.5,30.04,SW,215,0.0,0.0,93,0.00,CLR,,0.00,WeatherDisplay:10.37,2013-04-22 13:27:00,
2013-04-22 08:32:00,60.7,58.7,30.03,WSW,253,0.5,3.5,93,0.00,CLR,,0.00,WeatherDisplay:10.37,2013-04-22 13:32:00,
2013-04-22 08:37:00,60.8,58.8,30.03,NE,46,0.5,2.3,93,0.00,CLR,,0.00,WeatherDisplay:10.37,2013-04-22 13:37:00,
2013-04-22 08:42:00,61.0,58.7,30.03,SSW,207,0.3,3.5,92,0.00,CLR,,0.00,WeatherDisplay:10.37,2013-04-22 13:42:00,
2013-04-22 08:47:00,61.2,59.2,30.03,WSW,241,0.5,3.0,93,0.00,CLR,,0.00,WeatherDisplay:10.37,2013-04-22 13:47:00,
2013-04-22 08:52:00,61.5,59.2,30.03,South,182,1.4,3.0,92,0.00,CLR,,0.00,WeatherDisplay:10.37,2013-04-22 13:52:00,
2013-04-22 08:57:00,61.7,59.4,30.03,West,263,0.5,0.0,92,0.00,CLR,,0.00,WeatherDisplay:10.37,2013-04-22 13:57:00,
2013-04-22 09:02:00,61.9,59.2,30.04,SE,138,0.0,0.0,91,0.00,CLR,,0.00,WeatherDisplay:10.37,2013-04-22 14:02:00,
2013-04-22 09:07:00,62.1,59.4,30.04,SSW,201,0.0,0.0,91,0.00,CLR,,0.00,WeatherDisplay:10.37,2013-04-22 14:07:00,
2013-04-22 09:12:00,62.4,59.7,30.04,SW,216,0.0,3.5,91,0.00,CLR,,0.00,WeatherDisplay:10.37,2013-04-22 14:12:00,
2013-04-22 09:17:00,62.7,59.7,30.04,SW,234,0.0,2.0,90,0.00,CLR,,0.00,WeatherDisplay:10.37,2013-04-22 14:17:00,
2013-04-22 09:22:00,63.1,59.8,30.04,SSW,198,0.4,3.5,89,0.00,CLR,,0.00,WeatherDisplay:10.37,2013-04-22 14:22:00,
2013-04-22 09:27:00,63.4,59.8,30.04,WSW,258,0.7,2.3,88,0.00,CLR,,0.00,WeatherDisplay:10.37,2013-04-22 14:27:00,
2013-04-22 09:32:00,63.8,60.2,30.04,SW,231,0.1,1.2,88,0.00,CLR,,0.00,WeatherDisplay:10.37,2013-04-22 14:32:00,
2013-04-22 09:37:00,64.2,60.2,30.04,WSW,237,0.0,0.0,87,0.00,CLR,,0.00,WeatherDisplay:10.37,2013-04-22 14:37:00,
2013-04-22 09:42:00,64.6,60.3,30.03,SSW,205,0.0,0.0,86,0.00,CLR,,0.00,WeatherDisplay:10.37,2013-04-22 14:42:00,
2013-04-22 09:47:00,65.2,60.2,30.03,SW,220,0.0,3.5,84,0.00,CLR,,0.00,WeatherDisplay:10.37,2013-04-22 14:47:00,
2013-04-22 09:52:00,66.0,60.3,30.03,SSE,165,0.0,0.0,82,0.00,CLR,,0.00,WeatherDisplay:10.37,2013-04-22 14:52:00,
2013-04-22 09:57:00,66.8,60.4,30.03,WSW,244,0.4,1.2,80,0.00,CLR,,0.00,WeatherDisplay:10.37,2013-04-22 14:57:00,
2013-04-22 10:02:00,67.4,60.7,30.03,SSW,192,1.1,3.0,79,0.00,CLR,,0.00,WeatherDisplay:10.37,2013-04-22 15:02:00,
2013-04-22 10:07:00,68.1,60.2,30.03,SSW,196,0.5,2.3,76,0.00,CLR,,0.00,WeatherDisplay:10.37,2013-04-22 15:07:00,
2013-04-22 10:12:00,68.7,60.8,30.03,SSW,195,1.4,4.6,76,0.00,CLR,,0.00,WeatherDisplay:10.37,2013-04-22 15:12:00,
2013-04-22 10:17:00,69.4,60.8,30.03,SW,224,2.0,5.8,74,0.00,CLR,,0.00,WeatherDisplay:10.37,2013-04-22 15:17:00,
2013-04-22 10:22:00,69.9,61.2,30.03,SSE,165,0.0,0.0,74,0.00,CLR,,0.00,WeatherDisplay:10.37,2013-04-22 15:22:00,
2013-04-22 10:27:00,70.6,61.1,30.03,SSW,192,0.6,4.6,72,0.00,CLR,,0.00,WeatherDisplay:10.37,2013-04-22 15:27:00,
2013-04-22 10:32:00,70.9,61.4,30.02,South,171,0.7,1.2,72,0.00,CLR,,0.00,WeatherDisplay:10.37,2013-04-22 15:32:00,
2013-04-22 10:37:00,71.3,61.4,30.02,SW,236,0.4,6.9,71,0.00,CLR,,0.00,WeatherDisplay:10.37,2013-04-22 15:37:00,
2013-04-22 10:42:00,71.6,61.7,30.03,WNW,284,2.1,3.0,71,0.00,CLR,,0.00,WeatherDisplay:10.37,2013-04-22 15:42:00,
2013-04-22 10:47:00,71.9,61.6,30.03,NNE,20,0.7,3.5,70,0.00,CLR,,0.00,WeatherDisplay:10.37,2013-04-22 15:47:00,
2013-04-22 10:52:00,72.3,62.0,30.03,WSW,240,0.1,1.2,70,0.00,CLR,,0.00,WeatherDisplay:10.37,2013-04-22 15:52:00,
2013-04-22 10:57:00,72.5,61.7,30.03,SSW,213,1.1,2.0,69,0.00,CLR,,0.00,WeatherDisplay:10.37,2013-04-22 15:57:00,
2013-04-22 11:02:00,72.6,61.4,30.03,South,171,1.8,5.0,68,0.00,CLR,,0.00,WeatherDisplay:10.37,2013-04-22 16:02:00,
2013-04-22 11:07:00,73.1,61.5,30.03,WSW,239,2.5,2.5,67,0.00,CLR,,0.00,WeatherDisplay:10.37,2013-04-22 16:07:00,
2013-04-22 11:12:00,73.1,61.1,30.03,SSW,206,2.8,9.0,66,0.00,CLR,,0.00,WeatherDisplay:10.37,2013-04-22 16:12:00,
2013-04-22 11:17:00,73.0,61.0,30.02,South,189,2.2,3.5,66,0.00,CLR,,0.00,WeatherDisplay:10.37,2013-04-22 16:17:00,
2013-04-22 11:22:00,73.1,61.5,30.02,SW,218,0.2,2.3,67,0.00,CLR,,0.00,WeatherDisplay:10.37,2013-04-22 16:22:00,
2013-04-22 11:27:00,73.5,61.4,30.02,SW,227,3.2,3.5,66,0.00,CLR,,0.00,WeatherDisplay:10.37,2013-04-22 16:27:00,
2013-04-22 11:32:00,73.7,61.2,30.02,SSW,203,3.0,6.0,65,0.00,CLR,,0.00,WeatherDisplay:10.37,2013-04-22 16:32:00,
2013-04-22 11:37:00,74.0,61.9,30.02,SE,131,0.9,3.5,66,0.00,CLR,,0.00,WeatherDisplay:10.37,2013-04-22 16:37:00,
2013-04-22 11:42:00,74.8,61.4,30.01,SW,228,1.0,4.6,63,0.00,CLR,,0.00,WeatherDisplay:10.37,2013-04-22 16:42:00,
2013-04-22 11:47:00,75.1,61.6,30.01,WSW,254,1.3,2.3,63,0.00,CLR,,0.00,WeatherDisplay:10.37,2013-04-22 16:47:00,
2013-04-22 11:52:00,75.2,61.7,30.01,NW,308,0.2,3.5,63,0.00,CLR,,0.00,WeatherDisplay:10.37,2013-04-22 16:52:00,
2013-04-22 11:57:00,74.9,61.5,30.01,WSW,244,2.2,4.0,63,0.00,CLR,,0.00,WeatherDisplay:10.37,2013-04-22 16:57:00,
2013-04-22 12:02:00,74.8,61.8,30.01,SW,223,1.3,3.5,64,0.00,CLR,,0.00,WeatherDisplay:10.37,2013-04-22 17:02:00,
2013-04-22 12:07:00,75.3,61.8,30.00,WSW,242,2.7,4.0,63,0.00,CLR,,0.00,WeatherDisplay:10.37,2013-04-22 17:07:00,
2013-04-22 12:12:00,75.6,61.7,30.00,SSE,148,0.0,2.3,62,0.00,CLR,,0.00,WeatherDisplay:10.37,2013-04-22 17:12:00,
2013-04-22 12:17:00,76.2,62.2,30.00,West,278,1.9,2.3,62,0.00,CLR,,0.00,WeatherDisplay:10.37,2013-04-22 17:17:00,
2013-04-22 12:22:00,76.7,62.2,30.00,WSW,241,0.3,3.0,61,0.00,CLR,,0.00,WeatherDisplay:10.37,2013-04-22 17:22:00,
2013-04-22 12:27:00,77.0,62.0,29.99,NE,53,1.3,1.3,60,0.00,CLR,,0.00,WeatherDisplay:10.37,2013-04-22 17:27:00,
2013-04-22 12:32:00,77.6,62.1,29.99,WSW,249,1.0,2.3,59,0.00,CLR,,0.00,WeatherDisplay:10.37,2013-04-22 17:32:00,
2013-04-22 12:37:00,78.1,62.1,29.99,SSW,199,1.1,3.5,58,0.00,CLR,,0.00,WeatherDisplay:10.37,2013-04-22 17:37:00,
2013-04-22 12:42:00,78.5,62.0,29.99,WSW,255,2.8,3.5,57,0.00,CLR,,0.00,WeatherDisplay:10.37,2013-04-22 17:42:00,
2013-04-22 12:47:00,78.4,61.9,29.98,West,261,1.7,4.0,57,0.00,CLR,,0.00,WeatherDisplay:10.37,2013-04-22 17:47:00,
2013-04-22 12:52:00,78.4,61.9,29.98,SW,236,2.4,5.8,57,0.00,CLR,,0.00,WeatherDisplay:10.37,2013-04-22 17:52:00,
2013-04-22 12:57:00,78.3,62.3,29.98,SW,223,1.0,2.3,58,0.00,CLR,,0.00,WeatherDisplay:10.37,2013-04-22 17:57:00,
2013-04-22 13:02:00,78.5,62.5,29.97,NW,322,1.6,4.0,58,0.00,CLR,,0.00,WeatherDisplay:10.37,2013-04-22 18:02:00,
2013-04-22 13:07:00,78.8,61.8,29.97,NW,306,0.9,1.2,56,0.00,CLR,,0.00,WeatherDisplay:10.37,2013-04-22 18:07:00,
2013-04-22 13:12:00,78.7,61.7,29.97,SW,228,2.0,2.3,56,0.00,CLR,,0.00,WeatherDisplay:10.37,2013-04-22 18:12:00,
2013-04-22 13:17:00,78.6,61.6,29.97,SSW,195,0.2,5.0,56,0.00,CLR,,0.00,WeatherDisplay:10.37,2013-04-22 18:17:00,
2013-04-22 13:22:00,78.8,61.8,29.96,SSW,200,1.5,2.3,56,0.00,CLR,,0.00,WeatherDisplay:10.37,2013-04-22 18:22:00,
2013-04-22 13:27:00,79.2,62.1,29.96,WSW,241,1.8,4.6,56,0.00,CLR,,0.00,WeatherDisplay:10.37,2013-04-22 18:27:00,
2013-04-22 13:32:00,79.4,61.8,29.96,South,184,0.8,1.2,55,0.00,CLR,,0.00,WeatherDisplay:10.37,2013-04-22 18:32:00,
2013-04-22 13:37:00,79.2,62.1,29.95,NW,318,2.0,3.5,56,0.00,CLR,,0.00,WeatherDisplay:10.37,2013-04-22 18:37:00,
2013-04-22 13:42:00,79.3,61.7,29.95,SW,221,3.7,8.1,55,0.00,CLR,,0.00,WeatherDisplay:10.37,2013-04-22 18:42:00,
2013-04-22 13:47:00,79.3,61.7,29.95,NW,309,4.1,5.0,55,0.00,CLR,,0.00,WeatherDisplay:10.37,2013-04-22 18:47:00,
2013-04-22 13:52:00,79.2,61.6,29.95,SSW,210,0.7,2.3,55,0.00,CLR,,0.00,WeatherDisplay:10.37,2013-04-22 18:52:00,
2013-04-22 13:57:00,79.4,62.3,29.94,NW,307,2.4,4.6,56,0.00,CLR,,0.00,WeatherDisplay:10.37,2013-04-22 18:57:00,
2013-04-22 14:02:00,79.8,62.2,29.94,NNE,23,1.2,2.3,55,0.00,CLR,,0.00,WeatherDisplay:10.37,2013-04-22 19:02:00,
2013-04-22 14:07:00,80.5,62.8,29.94,SSW,209,2.4,3.5,55,0.00,CLR,,0.00,WeatherDisplay:10.37,2013-04-22 19:07:00,
2013-04-22 14:12:00,81.2,63.0,29.94,ENE,65,1.1,0.0,54,0.00,CLR,,0.00,WeatherDisplay:10.37,2013-04-22 19:12:00,
2013-04-22 14:17:00,81.9,62.0,29.93,SW,236,1.4,3.5,51,0.00,CLR,,0.00,WeatherDisplay:10.37,2013-04-22 19:17:00,
2013-04-22 14:22:00,82.8,62.3,29.93,South,170,0.0,0.0,50,0.00,CLR,,0.00,WeatherDisplay:10.37,2013-04-22 19:22:00,
2013-04-22 14:27:00,83.5,62.9,29.92,WNW,298,0.3,1.2,50,0.00,CLR,,0.00,WeatherDisplay:10.37,2013-04-22 19:27:00,
2013-04-22 14:32:00,83.9,62.1,29.92,SW,232,1.8,4.6,48,0.00,CLR,,0.00,WeatherDisplay:10.37,2013-04-22 19:32:00,
2013-04-22 14:37:00,83.7,61.9,29.92,NE,53,2.0,3.5,48,0.00,CLR,,0.00,WeatherDisplay:10.37,2013-04-22 19:37:00,
2013-04-22 14:42:00,84.2,61.8,29.92,SSW,192,2.5,5.8,47,0.00,CLR,,0.00,WeatherDisplay:10.37,2013-04-22 19:42:00,
2013-04-22 14:47:00,84.2,61.8,29.91,SW,221,1.0,2.0,47,0.00,CLR,,0.00,WeatherDisplay:10.37,2013-04-22 19:47:00,
2013-04-22 14:52:00,84.5,62.7,29.91,SSW,194,1.8,8.0,48,0.00,CLR,,0.00,WeatherDisplay:10.37,2013-04-22 19:52:00,
2013-04-22 14:57:00,84.3,61.9,29.91,ENE,69,0.8,2.3,47,0.00,CLR,,0.00,WeatherDisplay:10.37,2013-04-22 19:57:00,
2013-04-22 15:02:00,84.7,61.6,29.91,WSW,257,2.5,3.5,46,0.00,CLR,,0.00,WeatherDisplay:10.37,2013-04-22 20:02:00,
2013-04-22 15:07:00,84.8,62.3,29.90,SW,214,0.6,3.5,47,0.00,CLR,,0.00,WeatherDisplay:10.37,2013-04-22 20:07:00,
2013-04-22 15:12:00,85.3,62.2,29.90,SW,214,2.0,2.3,46,0.00,CLR,,0.00,WeatherDisplay:10.37,2013-04-22 20:12:00,
2013-04-22 15:17:00,85.4,62.3,29.89,North,355,2.9,3.5,46,0.00,CLR,,0.00,WeatherDisplay:10.37,2013-04-22 20:17:00,
2013-04-22 15:22:00,85.1,62.6,29.89,SSW,211,1.9,3.5,47,0.00,CLR,,0.00,WeatherDisplay:10.37,2013-04-22 20:22:00,
2013-04-22 15:27:00,85.0,61.9,29.89,ESE,107,0.2,1.2,46,0.00,CLR,,0.00,WeatherDisplay:10.37,2013-04-22 20:27:00,
2013-04-22 15:32:00,85.8,62.6,29.88,SSW,202,0.9,1.2,46,0.00,CLR,,0.00,WeatherDisplay:10.37,2013-04-22 20:32:00,
2013-04-22 15:37:00,86.5,62.6,29.88,NE,35,1.1,3.5,45,0.00,CLR,,0.00,WeatherDisplay:10.37,2013-04-22 20:37:00,
2013-04-22 15:42:00,86.8,62.3,29.87,WSW,255,3.2,5.8,44,0.00,CLR,,0.00,WeatherDisplay:10.37,2013-04-22 20:42:00,
2013-04-22 15:47:00,86.8,62.3,29.87,West,259,1.9,3.5,44,0.00,CLR,,0.00,WeatherDisplay:10.37,2013-04-22 20:47:00,
2013-04-22 15:52:00,86.9,62.4,29.87,WNW,302,0.4,3.5,44,0.00,CLR,,0.00,WeatherDisplay:10.37,2013-04-22 20:52:00,
2013-04-22 15:57:00,87.0,62.5,29.86,WSW,253,0.5,2.3,44,0.00,CLR,,0.00,WeatherDisplay:10.37,2013-04-22 20:57:00,
2013-04-22 16:02:00,87.8,62.5,29.86,WNW,300,1.2,2.3,43,0.00,CLR,,0.00,WeatherDisplay:10.37,2013-04-22 21:02:00,
2013-04-22 16:07:00,88.2,62.2,29.86,WSW,257,0.0,1.0,42,0.00,CLR,,0.00,WeatherDisplay:10.37,2013-04-22 21:07:00,
2013-04-22 16:12:00,88.2,62.2,29.85,SSW,194,2.0,3.5,42,0.00,CLR,,0.00,WeatherDisplay:10.37,2013-04-22 21:12:00,
2013-04-22 16:17:00,88.5,62.5,29.85,WSW,252,2.2,3.5,42,0.00,CLR,,0.00,WeatherDisplay:10.37,2013-04-22 21:17:00,
2013-04-22 16:22:00,88.4,62.4,29.85,South,173,3.0,6.9,42,0.00,CLR,,0.00,WeatherDisplay:10.37,2013-04-22 21:22:00,
2013-04-22 16:27:00,88.4,61.7,29.84,West,268,1.0,3.5,41,0.00,CLR,,0.00,WeatherDisplay:10.37,2013-04-22 21:27:00,
2013-04-22 16:32:00,88.3,61.6,29.84,NW,305,0.2,0.0,41,0.00,CLR,,0.00,WeatherDisplay:10.37,2013-04-22 21:32:00,
2013-04-22 16:37:00,88.3,61.6,29.84,NE,38,1.0,2.3,41,0.00,CLR,,0.00,WeatherDisplay:10.37,2013-04-22 21:37:00,
2013-04-22 16:42:00,87.4,61.5,29.84,South,185,1.1,2.0,42,0.00,CLR,,0.00,WeatherDisplay:10.37,2013-04-22 21:42:00,
2013-04-22 16:47:00,87.3,61.4,29.83,SSW,211,0.4,2.3,42,0.00,CLR,,0.00,WeatherDisplay:10.37,2013-04-22 21:47:00,
2013-04-22 16:52:00,87.7,61.1,29.83,SSW,210,2.0,5.8,41,0.00,CLR,,0.00,WeatherDisplay:10.37,2013-04-22 21:52:00,
2013-04-22 16:57:00,87.5,61.6,29.83,NNW,348,0.3,2.3,42,0.00,CLR,,0.00,WeatherDisplay:10.37,2013-04-22 21:57:00,
2013-04-22 17:02:00,87.5,62.2,29.83,NNE,30,0.4,3.0,43,0.00,CLR,,0.00,WeatherDisplay:10.37,2013-04-22 22:02:00,
2013-04-22 17:07:00,87.0,60.5,29.83,NE,48,0.1,1.2,41,0.00,CLR,,0.00,WeatherDisplay:10.37,2013-04-22 22:07:00,
2013-04-22 17:12:00,87.3,61.4,29.83,SSE,163,0.0,2.0,42,0.00,CLR,,0.00,WeatherDisplay:10.37,2013-04-22 22:12:00,
2013-04-22 17:17:00,87.5,60.9,29.82,SSW,200,2.7,3.5,41,0.00,CLR,,0.00,WeatherDisplay:10.37,2013-04-22 22:17:00,
2013-04-22 17:22:00,87.4,60.8,29.82,NE,52,0.5,2.3,41,0.00,CLR,,0.00,WeatherDisplay:10.37,2013-04-22 22:22:00,
2013-04-22 17:27:00,87.2,60.6,29.82,West,267,1.7,3.5,41,0.00,CLR,,0.00,WeatherDisplay:10.37,2013-04-22 22:27:00,
2013-04-22 17:32:00,86.9,60.4,29.82,NE,34,0.7,1.2,41,0.00,CLR,,0.00,WeatherDisplay:10.37,2013-04-22 22:32:00,
2013-04-22 17:37:00,86.7,60.9,29.82,SW,219,1.1,1.2,42,0.00,CLR,,0.00,WeatherDisplay:10.37,2013-04-22 22:37:00,
2013-04-22 17:42:00,86.8,61.0,29.81,ESE,120,0.5,2.3,42,0.00,CLR,,0.00,WeatherDisplay:10.37,2013-04-22 22:42:00,
2013-04-22 17:47:00,86.9,61.0,29.81,SW,219,0.0,0.0,42,0.00,CLR,,0.00,WeatherDisplay:10.37,2013-04-22 22:47:00,
2013-04-22 17:52:00,86.9,61.0,29.81,NNE,24,0.4,2.3,42,0.00,CLR,,0.00,WeatherDisplay:10.37,2013-04-22 22:52:00,
2013-04-22 17:57:00,86.6,60.8,29.81,South,176,1.0,1.2,42,0.00,CLR,,0.00,WeatherDisplay:10.37,2013-04-22 22:57:00,
2013-04-22 18:02:00,86.3,60.5,29.81,NNE,30,0.3,2.0,42,0.00,CLR,,0.00,WeatherDisplay:10.37,2013-04-22 23:02:00,
2013-04-22 18:07:00,86.0,60.2,29.81,SW,222,0.4,2.3,42,0.00,CLR,,0.00,WeatherDisplay:10.37,2013-04-22 23:07:00,
2013-04-22 18:12:00,85.8,60.1,29.81,ENE,62,1.8,2.3,42,0.00,CLR,,0.00,WeatherDisplay:10.37,2013-04-22 23:12:00,
2013-04-22 18:17:00,85.5,59.8,29.81,WSW,244,1.5,5.8,42,0.00,CLR,,0.00,WeatherDisplay:10.37,2013-04-22 23:17:00,
2013-04-22 18:22:00,85.3,60.3,29.81,West,259,0.0,0.0,43,0.00,CLR,,0.00,WeatherDisplay:10.37,2013-04-22 23:22:00,
2013-04-22 18:27:00,85.2,60.8,29.81,WSW,241,0.2,2.0,44,0.00,CLR,,0.00,WeatherDisplay:10.37,2013-04-22 23:27:00,
2013-04-22 18:32:00,85.0,60.0,29.80,West,265,0.0,0.0,43,0.00,CLR,,0.00,WeatherDisplay:10.37,2013-04-22 23:32:00,
2013-04-22 18:37:00,84.8,60.5,29.80,West,279,0.1,1.0,44,0.00,CLR,,0.00,WeatherDisplay:10.37,2013-04-22 23:37:00,
2013-04-22 18:42:00,84.6,60.3,29.80,NNE,23,0.0,1.2,44,0.00,CLR,,0.00,WeatherDisplay:10.37,2013-04-22 23:42:00,
2013-04-22 18:47:00,84.3,60.0,29.80,NNW,340,1.0,1.2,44,0.00,CLR,,0.00,WeatherDisplay:10.37,2013-04-22 23:47:00,
2013-04-22 18:52:00,84.2,59.9,29.80,WSW,244,0.2,2.3,44,0.00,CLR,,0.00,WeatherDisplay:10.37,2013-04-22 23:52:00,
2013-04-22 18:57:00,84.0,59.7,29.80,WNW,300,0.0,0.0,44,0.00,CLR,,0.00,WeatherDisplay:10.37,2013-04-22 23:57:00,
2013-04-22 19:02:00,83.7,59.5,29.80,WNW,301,0.0,0.0,44,0.00,CLR,,0.00,WeatherDisplay:10.37,2013-04-23 00:02:00,
2013-04-22 19:07:00,83.5,59.9,29.80,South,173,0.1,0.0,45,0.00,CLR,,0.00,WeatherDisplay:10.37,2013-04-23 00:07:00,
2013-04-22 19:12:00,83.2,59.6,29.80,SW,236,1.3,3.0,45,0.00,CLR,,0.00,WeatherDisplay:10.37,2013-04-23 00:12:00,
2013-04-22 19:17:00,82.8,59.9,29.80,NNE,21,0.8,4.6,46,0.00,CLR,,0.00,WeatherDisplay:10.37,2013-04-23 00:17:00,
2013-04-22 19:22:00,82.5,59.6,29.80,WNW,296,0.0,0.0,46,0.00,CLR,,0.00,WeatherDisplay:10.37,2013-04-23 00:22:00,
2013-04-22 19:27:00,82.3,59.4,29.80,NW,321,0.0,0.0,46,0.00,CLR,,0.00,WeatherDisplay:10.37,2013-04-23 00:27:00,
2013-04-22 19:32:00,82.0,59.2,29.80,WSW,257,0.0,0.0,46,0.00,CLR,,0.00,WeatherDisplay:10.37,2013-04-23 00:32:00,
2013-04-22 19:37:00,81.9,59.1,29.80,WSW,257,0.0,0.0,46,0.00,CLR,,0.00,WeatherDisplay:10.37,2013-04-23 00:37:00,
2013-04-22 19:43:00,81.6,59.4,29.80,West,272,0.0,2.3,47,0.00,CLR,,0.00,WeatherDisplay:10.37,2013-04-23 00:43:00,
2013-04-22 19:48:00,81.2,59.1,29.80,NNE,26,0.0,1.2,47,0.00,CLR,,0.00,WeatherDisplay:10.37,2013-04-23 00:48:00,
2013-04-22 19:53:00,81.0,58.9,29.80,NE,40,0.0,0.0,47,0.00,CLR,,0.00,WeatherDisplay:10.37,2013-04-23 00:53:00,
2013-04-22 19:58:00,80.7,59.2,29.80,NE,40,0.0,0.0,48,0.00,CLR,,0.00,WeatherDisplay:10.37,2013-04-23 00:58:00,
2013-04-22 20:03:00,80.5,59.0,29.80,NE,40,0.0,0.0,48,0.00,CLR,,0.00,WeatherDisplay:10.37,2013-04-23 01:03:00,
2013-04-22 20:08:00,80.2,58.7,29.81,NE,40,0.0,0.0,48,0.00,CLR,,0.00,WeatherDisplay:10.37,2013-04-23 01:08:00,
2013-04-22 20:13:00,79.9,59.0,29.81,NE,40,0.0,0.0,49,0.00,CLR,,0.00,WeatherDisplay:10.37,2013-04-23 01:13:00,
2013-04-22 20:18:00,79.6,58.8,29.81,NE,40,0.0,0.0,49,0.00,CLR,,0.00,WeatherDisplay:10.37,2013-04-23 01:18:00,
2013-04-22 20:23:00,79.2,59.0,29.81,NE,40,0.0,0.0,50,0.00,CLR,,0.00,WeatherDisplay:10.37,2013-04-23 01:23:00,
2013-04-22 20:28:00,78.7,58.5,29.81,NE,40,0.0,0.0,50,0.00,CLR,,0.00,WeatherDisplay:10.37,2013-04-23 01:28:00,
2013-04-22 20:33:00,78.3,58.7,29.81,NE,40,0.0,0.0,51,0.00,CLR,,0.00,WeatherDisplay:10.37,2013-04-23 01:33:00,
2013-04-22 20:38:00,78.0,58.9,29.81,NE,40,0.0,0.0,52,0.00,CLR,,0.00,WeatherDisplay:10.37,2013-04-23 01:38:00,
2013-04-22 20:43:00,77.6,59.1,29.81,NE,40,0.0,0.0,53,0.00,CLR,,0.00,WeatherDisplay:10.37,2013-04-23 01:43:00,
2013-04-22 20:48:00,77.3,58.8,29.81,NE,40,0.0,0.0,53,0.00,CLR,,0.00,WeatherDisplay:10.37,2013-04-23 01:48:00,
2013-04-22 20:53:00,77.0,59.1,29.82,NE,40,0.0,0.0,54,0.00,CLR,,0.00,WeatherDisplay:10.37,2013-04-23 01:53:00,
2013-04-22 20:58:00,76.7,59.3,29.82,NE,40,0.0,0.0,55,0.00,CLR,,0.00,WeatherDisplay:10.37,2013-04-23 01:58:00,
2013-04-22 21:03:00,76.4,59.0,29.82,NE,40,0.0,0.0,55,0.00,CLR,,0.00,WeatherDisplay:10.37,2013-04-23 02:03:00,
2013-04-22 21:08:00,76.1,59.3,29.82,NE,40,0.0,0.0,56,0.00,CLR,,0.00,WeatherDisplay:10.37,2013-04-23 02:08:00,
2013-04-22 21:13:00,75.8,59.0,29.82,NW,309,0.0,0.0,56,0.00,CLR,,0.00,WeatherDisplay:10.37,2013-04-23 02:13:00,
2013-04-22 21:18:00,75.7,58.9,29.82,NW,304,0.0,0.0,56,0.00,CLR,,0.00,WeatherDisplay:10.37,2013-04-23 02:18:00,
2013-04-22 21:23:00,75.6,58.8,29.82,NE,53,0.1,1.2,56,0.00,CLR,,0.00,WeatherDisplay:10.37,2013-04-23 02:23:00,
2013-04-22 21:28:00,75.6,58.8,29.82,NE,40,0.0,0.0,56,0.00,CLR,,0.00,WeatherDisplay:10.37,2013-04-23 02:28:00,
2013-04-22 21:33:00,75.5,58.7,29.82,ENE,57,0.1,0.0,56,0.00,CLR,,0.00,WeatherDisplay:10.37,2013-04-23 02:33:00,
2013-04-22 21:38:00,75.4,58.6,29.82,SSE,155,0.5,1.2,56,0.00,CLR,,0.00,WeatherDisplay:10.37,2013-04-23 02:38:00,
2013-04-22 21:43:00,75.3,59.0,29.83,NNE,28,0.0,0.0,57,0.00,CLR,,0.00,WeatherDisplay:10.37,2013-04-23 02:43:00,
2013-04-22 21:48:00,75.1,58.8,29.83,WNW,284,0.0,0.0,57,0.00,CLR,,0.00,WeatherDisplay:10.37,2013-04-23 02:48:00,
2013-04-22 21:53:00,75.0,58.7,29.83,SW,223,0.0,0.0,57,0.00,CLR,,0.00,WeatherDisplay:10.37,2013-04-23 02:53:00,
2013-04-22 21:58:00,74.8,58.5,29.84,SW,219,1.9,3.5,57,0.00,CLR,,0.00,WeatherDisplay:10.37,2013-04-23 02:58:00,
2013-04-22 22:03:00,74.6,59.3,29.84,ESE,114,1.9,0.0,59,0.00,CLR,,0.00,WeatherDisplay:10.37,2013-04-23 03:03:00,
2013-04-22 22:08:00,74.3,60.0,29.84,ENE,61,0.0,0.0,61,0.00,CLR,,0.00,WeatherDisplay:10.37,2013-04-23 03:08:00,
2013-04-22 22:13:00,74.1,60.2,29.84,WSW,241,0.0,0.0,62,0.00,CLR,,0.00,WeatherDisplay:10.37,2013-04-23 03:13:00,
2013-04-22 22:18:00,73.9,60.5,29.85,WNW,288,0.5,1.2,63,0.00,CLR,,0.00,WeatherDisplay:10.37,2013-04-23 03:18:00,
2013-04-22 22:23:00,73.5,60.6,29.85,ENE,65,0.2,3.0,64,0.00,CLR,,0.00,WeatherDisplay:10.37,2013-04-23 03:23:00,
2013-04-22 22:28:00,73.2,60.7,29.85,NNE,12,0.7,1.2,65,0.00,CLR,,0.00,WeatherDisplay:10.37,2013-04-23 03:28:00,
2013-04-22 22:33:00,72.9,60.9,29.85,NNW,342,1.0,3.5,66,0.00,CLR,,0.00,WeatherDisplay:10.37,2013-04-23 03:33:00,
2013-04-22 22:38:00,72.6,61.0,29.86,East,94,0.0,1.2,67,0.00,CLR,,0.00,WeatherDisplay:10.37,2013-04-23 03:38:00,
2013-04-22 22:43:00,72.3,61.1,29.86,SSW,210,0.1,2.3,68,0.00,CLR,,0.00,WeatherDisplay:10.37,2013-04-23 03:43:00,
2013-04-22 22:48:00,72.2,61.5,29.86,WNW,302,0.0,0.0,69,0.00,CLR,,0.00,WeatherDisplay:10.37,2013-04-23 03:48:00,
2013-04-22 22:53:00,71.9,61.2,29.86,NW,304,0.0,0.0,69,0.00,CLR,,0.00,WeatherDisplay:10.37,2013-04-23 03:53:00,
2013-04-22 22:58:00,71.5,61.2,29.86,SSW,197,0.9,3.5,70,0.00,CLR,,0.00,WeatherDisplay:10.37,2013-04-23 03:58:00,
2013-04-22 23:01:00,71.3,61.0,29.86,SW,221,0.9,3.5,70,0.00,CLR,,0.00,WeatherDisplay:10.37,2013-04-23 04:01:00,
2013-04-22 23:06:00,70.9,60.6,29.87,SSW,209,0.2,2.3,70,0.00,CLR,,0.00,WeatherDisplay:10.37,2013-04-23 04:06:00,
2013-04-22 23:11:00,70.6,60.7,29.87,WNW,300,1.1,2.3,71,0.00,CLR,,0.00,WeatherDisplay:10.37,2013-04-23 04:11:00,
2013-04-22 23:16:00,70.3,60.4,29.87,WNW,301,0.1,1.2,71,0.00,CLR,,0.00,WeatherDisplay:10.37,2013-04-23 04:16:00,
2013-04-22 23:21:00,70.2,60.4,29.86,SSW,198,1.9,2.3,71,0.00,CLR,,0.00,WeatherDisplay:10.37,2013-04-23 04:21:00,
2013-04-22 23:26:00,69.9,60.5,29.86,NW,323,0.1,1.2,72,0.00,CLR,,0.00,WeatherDisplay:10.37,2013-04-23 04:26:00,
2013-04-22 23:31:00,69.7,60.3,29.86,SSW,207,0.3,2.0,72,0.00,CLR,,0.00,WeatherDisplay:10.37,2013-04-23 04:31:00,
2013-04-22 23:36:00,69.5,60.5,29.86,WSW,239,0.0,0.0,73,0.00,CLR,,0.00,WeatherDisplay:10.37,2013-04-23 04:36:00,
2013-04-22 23:41:00,69.3,60.3,29.86,WSW,240,0.0,0.0,73,0.00,CLR,,0.00,WeatherDisplay:10.37,2013-04-23 04:41:00,
2013-04-22 23:46:00,69.0,60.4,29.86,SSE,158,0.0,1.2,74,0.00,CLR,,0.00,WeatherDisplay:10.37,2013-04-23 04:46:00,
2013-04-22 23:51:00,68.8,60.2,29.85,SSE,162,0.2,2.3,74,0.00,CLR,,0.00,WeatherDisplay:10.37,2013-04-23 04:51:00,
2013-04-22 23:56:00,68.6,60.0,29.85,NE,49,0.0,0.0,74,0.00,CLR,,0.00,WeatherDisplay:10.37,2013-04-23 04:56:00,